Location: Boiro
(42.6475°N, 8.8834°W)
Time: 17:46:54
(UTC+01:00)

Altair - Pass Details

Date: 08 December 2021
Orbit: 1501 x 1683 km, 47.2° (Epoch: 25 January)

Event Time Altitude Azimuth Distance (km) Brightness Sun altitude
Rises 16:37:17 0° 244° (WSW) 4,814 11.6 11.3°
Reaches altitude 10° 16:40:26 10° 245° (WSW) 3,806 11.2 10.9°
Maximum altitude 16:50:06 89° 331° (NNW) 1,557 7.8 9.7°
Drops below altitude 10° 16:59:27 10° 67° (ENE) 3,683 9.0 8.4°
Sets 17:02:27 0° 68° (ENE) 4,653 9.4 8.0°
